RH
62 53 50 46 44 38 31 24 29 32 21 21 28 32 22 22 14 10 6 5 4 2 2 2 2 2 2 2 2 2 4 6 8 12 13 15 19 21 18 22 26 29 32 32 46 71 88
63 67 68 56 54 46 37 25 29 32 21 24 31 33 21 25 18 11 10 7 4 4 3 3 3 3 3 2 2 3 4 7 8 14 14 14 18 22 24 23 25 28 29 28 28 33 42
68 73 82 64 49 41 40 31 28 33 22 25 35 40 20 26 23 14 13 8 6 5 4 5 4 3 3 3 3 3 4 7 8 15 16 15 16 21 22 27 32 28 29 29 30 32 30
64 63 58 61 60 46 43 35 28 33 22 23 39 44 22 25 29 21 16 12 10 8 8 6 11 8 4 3 3 4 4 7 10 17 17 16 16 20 23 33 40 33 32 30 30 28 27
80 70 62 65 65 50 42 37 28 32 28 23 39 34 29 21 24 33 23 14 14 9 11 13 13 13 7 6 4 5 6 7 11 13 17 16 17 18 21 29 37 36 40 36 34 28 27
74 65 63 62 66 62 41 38 29 33 34 25 30 30 31 21 23 30 34 28 24 16 8 12 10 8 9 8 5 5 6 11 12 11 15 15 18 18 19 23 33 41 47 46 39 34 30
39 37 38 40 44 44 41 38 31 40 41 26 30 34 31 25 21 23 30 28 25 17 9 8 11 8 7 15 8 5 7 9 13 12 13 20 18 18 20 20 25 43 48 48 48 42 37
75 72 43 40 44 38 47 41 30 43 46 35 32 38 35 28 22 22 23 30 28 22 11 7 8 10 7 13 16 6 6 10 14 14 14 22 20 19 18 20 22 28 38 41 43 40 34
90 91 81 41 41 37 52 43 31 33 41 46 35 40 37 34 27 23 23 30 31 29 18 10 9 9 13 10 17 20 8 5 10 13 16 19 21 22 20 19 21 24 28 34 32 32 28
94 89 83 71 33 34 46 44 36 30 33 51 45 41 40 35 30 25 23 24 32 33 30 20 12 10 10 13 12 17 25 16 7 12 16 24 20 22 24 26 26 28 36 30 33 31 34
90 95 80 69 48 29 36 42 36 31 31 47 58 48 41 41 33 30 25 23 25 32 30 28 19 13 9 10 14 13 16 22 19 15 16 18 23 22 24 26 27 31 32 31 33 40 38
67 64 75 78 62 38 40 43 38 35 32 32 50 57 50 47 41 41 28 25 25 25 28 32 30 23 18 10 10 12 12 14 14 16 15 16 19 23 24 24 25 30 31 27 27 32 34
92 75 63 62 66 62 37 36 35 34 38 33 33 41 52 68 41 43 38 29 27 24 25 26 31 32 31 19 15 11 14 16 13 14 14 16 17 20 26 27 28 34 32 30 28 27 32
83 71 79 72 67 64 62 45 39 32 34 40 38 34 39 48 65 47 43 37 31 27 24 24 24 30 31 33 26 20 16 12 17 14 10 13 16 18 25 30 30 35 33 29 30 33 33
78 70 58 72 74 65 67 65 48 40 35 34 38 37 33 37 46 67 55 42 39 33 26 22 26 27 26 32 33 35 26 19 18 13 18 14 16 16 19 24 33 35 34 31 31 31 31
100 88 70 58 77 72 70 73 72 52 36 31 32 34 34 33 35 34 61 60 51 40 33 28 21 24 28 29 26 32 33 35 28 21 18 21 19 19 21 24 28 32 33 32 30 32 30
98 100 95 63 55 69 78 80 89 84 59 39 28 31 34 29 34 32 33 51 68 56 40 36 31 24 23 26 30 31 27 30 36 38 33 30 28 29 34 32 30 29 28 27 27 27 29
100 100 84 99 73 49 60 66 88 88 86 67 52 38 34 29 28 30 30 32 75 79 57 47 43 36 31 24 21 25 28 33 31 28 36 42 43 38 40 48 53 52 43 39 34 33 29
82 100 100 94 100 70 55 69 71 95 92 79 80 64 49 36 30 29 29 29 34 95 89 66 52 50 44 38 33 27 22 24 30 37 34 29 32 39 43 45 48 50 49 46 43 39 37
94 100 100 98 100 100 68 70 67 100 100 100 90 82 79 64 63 48 33 26 30 40 91 100 77 72 72 60 48 40 34 28 23 21 28 40 37 34 32 32 31 32 32 32 34 32 31
80 90 94 99 100 100 96 82 80 88 100 100 100 99 97 92 86 80 62 42 38 46 61 100 100 99 94 91 84 72 63 42 35 32 26 20 20 22 30 48 53 44 42 39 30 34 31
91 97 99 100 100 100 99 84 82 80 85 100 100 100 100 100 100 100 99 84 82 88 100 100 100 100 98 100 100 100 96 78 75 52 43 36 32 29 25 21 24 30 58 53 44 47 41
83 92 98 100 100 100 100 100 87 80 84 93 96 100 100 100 100 100 100 100 100 93 98 97 100 100 100 100 100 100 100 100 93 86 85 70 57 44 37 34 29 24 23 24 26 37 39
84 87 88 86 99 100 100 99 100 95 100 94 89 86 95 99 100 100 100 100 100 100 100 100 100 100 100 100 100 100 100 100 100 100 94 94 99 88 70 54 46 44 43 42 34 31 36
72 75 78 83 99 100 100 100 100 100 100 100 100 94 79 76 90 88 98 100 100 100 100 100 100 100 100 100 100 100 100 100 100 100 100 100 100 100 100 100 94 77 62 60 60 56 58
81 79 69 69 79 80 94 100 100 100 100 100 100 100 100 84 86 93 97 81 97 100 100 98 96 100 100 100 100 100 100 100 100 100 100 100 100 100 100 100 100 100 100 100 85 74 72
62 73 82 84 81 74 70 68 89 88 94 100 100 100 100 100 100 95 83 88 79 79 93 89 96 94 91 100 100 100 100 100 100 100 100 100 100 98 100 100 100 100 100 100 100 100 100
95 84 89 86 82 73 65 80 78 67 76 68 76 87 100 99 100 100 100 99 76 71 84 90 99 93 83 85 86 99 99 94 98 93 93 100 100 100 100 100 100 100 92 84 89 85 92
100 100 100 100 87 89 84 61 70 86 76 76 61 57 71 94 100 98 96 90 100 88 72 73 70 74 90 68 69 76 67 61 62 65 86 84 74 83 91 100 100 100 100 100 100 100 100
Wind_Speed
31 33 36 37 38 40 41 43 48 54 60 68 78 90 94 94 90 75 61 54 46 32 23 9 3 15 25 39 52 61 66 76 93 115 111 106 106 104 97 92 87 82 78 71 66 68 67
31 32 35 36 35 38 40 41 46 51 59 66 76 87 94 94 90 77 67 56 50 36 30 18 3 7 14 25 41 50 60 74 92 108 109 104 105 107 103 94 90 83 78 74 68 70 69
33 35 35 36 35 36 39 41 44 48 56 64 73 83 92 94 89 79 71 59 55 44 31 31 16 3 9 18 30 44 59 74 84 104 105 103 103 104 102 95 89 85 80 76 71 74 69
36 37 36 33 34 37 39 41 42 47 53 59 68 78 88 93 88 81 75 65 60 48 39 32 28 17 6 14 23 37 51 68 84 104 110 106 102 104 102 96 91 87 82 77 74 74 69
37 36 37 35 34 37 38 38 41 44 50 57 64 73 83 90 88 86 81 70 61 51 43 33 30 21 15 12 18 30 45 60 75 100 110 105 99 97 98 96 91 86 80 78 77 74 67
38 38 38 37 36 36 37 34 39 40 46 53 61 68 76 86 89 82 84 79 66 53 43 35 26 23 18 19 18 25 39 52 64 81 94 97 96 89 91 95 90 84 79 78 76 74 68
30 31 32 33 34 32 33 30 34 37 43 49 56 64 73 81 87 84 80 79 73 55 47 39 33 22 19 19 20 25 36 50 56 59 83 93 91 88 90 88 90 87 84 82 78 75 71
29 31 29 27 25 20 23 26 28 33 39 46 53 60 68 76 84 88 84 85 81 70 52 43 38 25 21 22 20 24 31 44 59 58 74 89 90 88 86 85 86 87 84 82 81 78 73
30 35 40 31 22 16 19 23 25 31 34 41 48 54 62 69 77 84 83 79 78 78 64 49 43 31 22 19 17 19 25 36 45 55 66 80 90 91 87 82 83 84 82 78 77 74 69
28 33 37 41 28 17 17 20 23 27 32 37 43 49 55 62 69 76 83 81 76 75 74 61 47 37 27 18 18 17 19 27 41 52 59 82 83 87 87 85 82 80 79 74 71 67 66
25 28 34 38 38 21 18 19 21 24 29 32 38 44 49 55 61 69 76 83 79 72 70 72 64 48 36 27 17 17 18 18 25 37 57 71 87 87 88 88 85 83 79 76 72 67 66
25 27 30 34 37 29 18 19 19 21 25 29 32 38 43 48 54 60 66 73 79 75 69 69 72 67 46 36 29 20 13 19 28 36 49 59 78 92 92 89 87 84 80 75 74 72 69
27 28 30 30 33 36 24 19 18 19 23 26 30 33 37 42 48 53 56 63 69 73 71 67 66 68 68 54 39 29 22 13 17 28 33 49 58 84 95 93 89 85 81 77 75 72 70
25 27 28 28 29 30 34 25 18 19 21 24 27 30 33 36 39 45 48 54 60 65 70 68 66 64 64 64 61 44 34 25 20 14 23 35 46 58 84 89 89 88 83 80 77 75 71
19 21 25 24 26 27 28 30 25 17 19 22 25 27 29 32 36 38 41 47 49 55 61 64 69 70 64 60 61 62 57 45 34 24 16 22 34 42 55 82 93 89 85 82 79 78 75
21 19 22 22 21 23 24 26 29 27 17 17 20 24 25 28 31 35 36 37 40 45 50 55 59 61 65 66 60 57 57 57 51 42 33 23 15 27 36 57 76 87 87 86 82 79 74
22 20 21 22 23 20 21 23 25 27 30 20 18 20 22 23 24 29 33 33 33 36 40 45 48 52 54 57 60 61 56 52 51 49 43 32 25 14 14 28 45 61 77 85 83 77 75
26 23 27 24 24 23 21 21 20 24 25 28 25 17 19 21 21 23 27 28 27 28 30 34 38 41 44 46 50 51 53 56 53 45 42 39 36 27 16 12 18 29 41 51 58 60 63
31 30 30 30 26 25 22 22 19 23 25 25 25 25 19 18 20 21 22 24 23 23 24 25 26 30 33 35 39 41 41 42 41 44 45 37 31 29 27 23 17 13 15 22 27 33 38
29 28 27 28 25 25 25 22 19 17 22 26 25 25 25 23 23 23 21 18 19 21 22 20 22 23 24 25 27 28 31 31 33 32 31 33 33 33 32 28 24 20 17 16 18 19 18
32 30 31 28 27 27 28 25 22 16 19 24 25 25 25 26 26 24 25 21 16 17 19 20 20 19 21 21 21 21 21 21 22 23 22 21 20 18 18 15 16 17 16 15 11 9 7
32 29 30 30 31 28 31 29 25 22 19 20 20 22 25 23 22 26 26 22 19 17 19 17 17 19 19 19 20 22 21 19 13 14 15 15 14 12 13 10 5 5 3 1 5 8 13
40 36 34 32 32 31 31 29 27 26 24 25 25 23 22 22 22 22 24 28 25 22 19 16 16 17 19 20 19 17 19 19 20 19 15 14 14 9 10 11 15 13 12 13 12 14 17
46 44 40 37 36 36 34 33 31 30 30 31 29 30 28 27 27 28 28 26 24 26 28 25 23 20 18 22 20 20 21 23 23 25 25 24 22 19 20 15 19 22 21 22 25 24 26
53 50 50 46 43 44 42 41 41 39 37 36 36 35 34 33 32 33 33 34 36 35 29 26 29 26 27 28 28 22 23 25 26 25 27 28 29 32 31 34 29 29 32 32 33 34 36
62 61 57 56 55 53 51 48 45 46 45 45 44 43 42 41 41 39 39 41 40 38 41 42 35 32 33 32 33 34 36 39 38 35 34 35 38 37 38 40 39 43 43 43 44 44 47
65 67 68 67 64 64 63 59 58 58 58 55 52 53 51 50 51 50 51 48 46 46 48 47 48 50 44 41 39 41 42 46 47 48 49 49 48 48 48 47 48 51 50 51 52 54 56
74 71 71 72 67 66 67 66 66 66 64 64 62 58 57 56 55 56 55 51 54 50 46 50 49 53 53 55 50 48 47 54 54 59 62 62 61 60 60 60 58 58 61 60 60 62 63
79 79 78 77 77 72 70 70 73 73 72 70 67 68 65 59 56 58 62 64 60 58 53 52 54 57 57 58 61 62 63 66 67 68 68 68 74 74 76 76 73 72 71 71 72 73 74
Wind_Direction
306 304 304 306 313 317 322 328 336 340 345 356 3 6 2 6 3 8 14 15 13 15 15 5 245 221 216 213 209 209 202 200 196 203 204 205 210 213 214 213 213 215 217 218 219 223 223
311 309 307 310 317 323 327 332 339 344 352 1 6 8 7 9 8 12 14 23 18 24 33 20 25 193 205 204 210 205 198 194 195 200 203 204 206 211 213 213 213 215 216 218 219 225 225
311 308 310 309 317 326 329 331 340 345 355 5 7 10 11 13 13 15 19 25 23 25 36 44 34 72 178 181 187 197 198 194 194 197 201 203 204 209 212 213 214 215 215 218 220 225 225
312 307 310 311 315 322 328 332 341 345 356 9 9 12 14 17 17 21 23 26 26 26 30 52 60 40 120 191 178 181 190 190 194 196 198 202 204 206 210 212 214 216 218 218 222 227 228
306 306 308 306 312 320 326 331 342 346 356 10 12 17 16 19 19 24 25 28 30 28 30 35 52 67 122 158 173 181 184 189 195 198 196 200 203 204 208 210 214 215 218 221 225 228 231
306 306 306 307 307 311 320 331 341 348 357 9 15 16 19 20 21 25 30 31 26 28 31 35 36 64 89 148 174 171 182 189 201 203 199 198 202 203 207 211 212 214 217 222 226 228 232
324 322 317 312 307 306 312 330 344 349 357 5 15 16 21 20 24 24 30 35 34 30 36 36 37 52 85 108 158 181 181 189 196 202 200 201 203 204 208 209 210 210 214 218 224 229 234
11 359 338 323 319 317 310 334 349 351 357 4 13 17 20 21 25 26 27 34 35 34 36 41 42 44 74 92 127 164 183 189 190 194 198 201 201 205 208 208 212 213 215 219 223 228 232
11 8 8 353 326 316 313 333 348 356 359 2 10 17 20 23 25 28 30 34 38 37 37 42 44 50 51 92 116 136 168 185 193 195 196 201 202 205 209 210 213 216 218 219 223 227 231
8 6 6 6 352 320 320 333 344 354 4 4 8 15 19 24 25 27 31 33 37 41 41 43 44 54 63 75 117 142 155 170 186 190 192 199 204 205 208 212 215 217 218 219 218 223 227
2 2 3 3 6 343 321 330 339 349 3 6 7 14 19 22 27 26 31 35 34 38 43 46 48 49 61 69 92 130 152 169 180 184 190 192 202 206 208 211 215 217 218 216 217 219 223
346 349 353 357 6 3 338 332 335 343 356 6 7 10 17 19 24 30 28 34 36 36 41 48 50 52 51 58 73 98 130 166 177 183 187 193 199 205 209 212 216 218 219 220 221 222 225
330 335 341 348 354 3 2 336 332 338 346 359 4 7 10 14 21 29 30 30 35 37 38 45 51 55 54 56 57 71 79 117 163 177 184 194 200 205 208 211 214 218 221 223 224 226 227
326 328 333 341 345 358 7 4 337 334 342 349 356 4 9 11 18 23 32 29 32 34 41 42 47 52 57 59 60 64 70 84 108 140 177 189 196 203 209 211 215 217 220 223 227 231 232
322 335 339 341 344 350 357 5 3 337 335 344 346 355 6 8 15 18 25 27 28 30 35 40 45 49 52 57 60 61 62 69 74 83 103 180 191 198 205 213 216 219 221 226 230 235 237
310 315 328 340 343 353 356 355 3 7 344 343 350 352 360 5 11 16 18 20 28 28 32 35 38 44 51 53 56 60 64 65 65 68 78 94 157 196 199 207 214 219 223 226 230 233 238
302 301 319 320 331 341 357 360 356 4 8 350 342 352 354 3 11 10 8 10 20 27 29 34 37 39 44 53 56 56 59 62 65 68 69 74 91 112 183 213 213 219 225 229 233 236 240
294 296 307 313 315 323 339 349 356 357 1 4 357 345 349 353 0 6 5 5 6 16 29 30 35 37 38 43 47 59 63 61 63 67 72 75 76 84 105 160 204 226 232 232 233 238 246
277 286 293 299 305 309 315 330 343 348 347 353 356 359 357 352 353 356 1 5 1 4 8 21 33 35 39 39 40 40 51 61 67 69 69 73 87 90 93 105 126 154 197 217 228 237 244
274 276 287 293 295 296 302 314 319 339 343 343 344 348 349 356 359 351 350 0 3 357 356 360 11 19 26 34 38 44 37 40 48 61 69 74 79 77 89 95 108 122 145 157 158 140 156
273 276 280 283 287 285 291 296 304 310 316 329 332 336 342 344 344 351 354 348 356 357 356 350 341 350 359 4 10 21 31 36 38 40 45 54 61 69 87 95 96 109 114 132 133 143 157
273 279 276 281 285 285 289 288 289 291 293 300 307 316 323 333 339 343 347 347 344 353 354 348 336 333 331 336 341 347 350 360 11 11 17 15 17 29 26 30 68 109 153 273 296 298 308
272 274 278 280 279 282 281 284 283 275 279 286 288 297 305 308 312 315 329 331 331 326 328 336 342 343 332 317 314 319 321 325 325 326 328 330 335 328 329 325 324 313 304 289 270 268 282
269 269 271 273 276 278 278 280 283 280 278 279 280 284 288 286 291 295 301 304 312 316 316 314 314 315 316 332 321 306 304 308 301 298 301 306 301 302 295 288 281 290 286 285 289 282 272
268 269 269 267 270 272 274 278 281 280 281 279 277 278 279 282 285 285 287 292 296 297 299 298 301 302 307 307 301 297 298 295 292 291 294 292 289 289 289 295 281 273 275 280 283 276 273
269 267 270 273 269 267 268 270 273 277 277 278 280 279 279 280 282 282 285 283 284 287 291 292 288 287 289 292 293 295 296 295 287 283 282 279 280 279 276 277 280 276 278 279 280 283 281
269 270 271 274 278 271 266 267 271 273 275 275 277 278 276 277 279 281 282 282 279 283 284 284 285 286 286 288 292 297 295 289 286 288 290 285 278 272 274 274 272 273 273 275 277 278 279
268 269 271 273 273 271 268 268 268 270 274 276 272 275 277 278 276 279 274 273 279 279 279 280 277 277 282 280 279 287 288 298 293 287 280 278 277 277 277 273 267 266 272 273 274 276 275
264 267 270 271 270 270 269 271 268 270 270 269 272 274 273 271 271 274 272 274 272 269 270 279 279 277 280 278 277 275 280 278 285 290 285 277 276 274 276 277 273 272 271 274 275 274 273